Time,TemperatureF,DewpointF,PressureIn,WindDirection,WindDirectionDegrees,WindSpeedMPH,WindSpeedGustMPH,Humidity,HourlyPrecipIn,Conditions,Clouds,dailyrainin,SoftwareType,DateUTC
2013-05-05 00:01:00,46.8,46.5,29.92,NW,323,0.0,0.0,99,0.00,,,6.25,Wunderground v.1.15,2013-05-05 04:01:00,
2013-05-05 00:02:00,46.8,46.5,29.92,NW,322,1.0,1.0,99,0.00,,,6.25,Wunderground v.1.15,2013-05-05 04:02:00,
2013-05-05 00:05:00,46.8,46.5,29.92,NW,323,0.0,1.0,99,0.00,,,6.25,Wunderground v.1.15,2013-05-05 04:05:00,
2013-05-05 00:06:00,46.7,46.4,29.92,NW,323,0.0,1.0,99,0.00,,,6.25,Wunderground v.1.15,2013-05-05 04:06:00,
2013-05-05 00:11:00,46.8,46.5,29.92,NW,323,0.0,0.0,99,0.00,,,6.25,Wunderground v.1.15,2013-05-05 04:11:00,
2013-05-05 00:16:00,46.5,46.2,29.92,NNW,333,0.0,1.0,99,0.00,,,6.25,Wunderground v.1.15,2013-05-05 04:16:00,
2013-05-05 00:22:00,46.2,45.9,29.90,NW,316,0.0,0.0,99,0.00,,,6.25,Wunderground v.1.15,2013-05-05 04:22:00,
2013-05-05 00:27:00,46.1,45.8,29.90,NW,324,1.0,1.0,99,0.00,,,6.25,Wunderground v.1.15,2013-05-05 04:27:00,
2013-05-05 00:32:00,45.8,45.5,29.90,NW,326,1.0,1.0,99,0.00,,,6.25,Wunderground v.1.15,2013-05-05 04:32:00,
2013-05-05 00:37:00,45.7,45.4,29.90,NW,325,1.0,1.0,99,0.00,,,6.25,Wunderground v.1.15,2013-05-05 04:37:00,
2013-05-05 00:42:00,45.5,45.2,29.90,NW,326,0.0,1.0,99,0.00,,,6.25,Wunderground v.1.15,2013-05-05 04:42:00,
2013-05-05 00:47:00,45.4,45.1,29.90,NNW,328,1.0,1.0,99,0.00,,,6.25,Wunderground v.1.15,2013-05-05 04:47:00,
2013-05-05 00:52:00,45.2,44.9,29.89,NW,319,0.0,0.0,99,0.00,,,6.25,Wunderground v.1.15,2013-05-05 04:52:00,
2013-05-05 00:57:00,44.9,44.6,29.89,NW,320,0.0,0.0,99,0.00,,,6.25,Wunderground v.1.15,2013-05-05 04:57:00,
2013-05-05 01:02:00,44.9,44.6,29.90,NW,323,0.0,0.0,99,0.00,,,6.25,Wunderground v.1.15,2013-05-05 05:02:00,
2013-05-05 01:08:00,44.8,44.5,29.90,NW,323,0.0,1.0,99,0.00,,,6.25,Wunderground v.1.15,2013-05-05 05:08:00,
2013-05-05 01:14:00,44.6,44.3,29.90,NW,323,1.0,1.0,99,0.00,,,6.25,Wunderground v.1.15,2013-05-05 05:14:00,
2013-05-05 01:19:00,44.3,44.0,29.89,NW,311,0.0,1.0,99,0.00,,,0.00,Wunderground v.1.15,2013-05-05 05:19:00,
2013-05-05 01:24:00,44.2,43.9,29.89,NNW,339,0.0,1.0,99,0.00,,,0.00,Wunderground v.1.15,2013-05-05 05:24:00,
2013-05-05 01:30:00,44.1,43.8,29.89,WNW,301,0.0,0.0,99,0.00,,,0.00,Wunderground v.1.15,2013-05-05 05:30:00,
2013-05-05 01:35:00,44.1,43.8,29.88,NW,311,0.0,1.0,99,0.00,,,0.00,Wunderground v.1.15,2013-05-05 05:35:00,
2013-05-05 01:40:00,44.1,43.8,29.88,NW,311,1.0,1.0,99,0.00,,,0.00,Wunderground v.1.15,2013-05-05 05:40:00,
2013-05-05 01:45:00,43.9,43.6,29.88,NW,317,0.0,1.0,99,0.00,,,0.00,Wunderground v.1.15,2013-05-05 05:45:00,
2013-05-05 01:51:00,43.9,43.6,29.89,NW,316,0.0,0.0,99,0.00,,,0.00,Wunderground v.1.15,2013-05-05 05:51:00,
2013-05-05 01:56:00,43.8,43.3,29.89,NW,315,0.0,1.0,98,0.00,,,0.00,Wunderground v.1.15,2013-05-05 05:56:00,
2013-05-05 02:01:00,43.8,43.3,29.89,NNW,327,1.0,1.0,98,0.00,,,0.00,Wunderground v.1.15,2013-05-05 06:01:00,
2013-05-05 02:06:00,43.8,43.3,29.87,NW,325,1.0,1.0,98,0.00,,,0.00,Wunderground v.1.15,2013-05-05 06:06:00,
2013-05-05 02:11:00,43.6,43.1,29.87,NW,321,0.0,1.0,98,0.00,,,0.00,Wunderground v.1.15,2013-05-05 06:11:00,
2013-05-05 02:16:00,43.6,43.1,29.87,NW,317,0.0,1.0,98,0.00,,,0.00,Wunderground v.1.15,2013-05-05 06:16:00,
2013-05-05 02:21:00,43.6,43.1,29.86,NW,320,1.0,1.0,98,0.00,,,0.00,Wunderground v.1.15,2013-05-05 06:21:00,
2013-05-05 02:26:00,43.5,43.0,29.86,NW,319,0.0,1.0,98,0.00,,,0.00,Wunderground v.1.15,2013-05-05 06:26:00,
2013-05-05 02:31:00,43.5,43.0,29.86,NW,311,1.0,1.0,98,0.00,,,0.00,Wunderground v.1.15,2013-05-05 06:31:00,
2013-05-05 02:36:00,43.5,43.0,29.85,NNW,328,1.0,1.0,98,0.00,,,0.00,Wunderground v.1.15,2013-05-05 06:36:00,
2013-05-05 02:41:00,43.5,43.0,29.85,NNW,343,1.0,1.0,98,0.00,,,0.00,Wunderground v.1.15,2013-05-05 06:41:00,
2013-05-05 02:46:00,43.6,43.1,29.85,NW,304,0.0,1.0,98,0.00,,,0.00,Wunderground v.1.15,2013-05-05 06:46:00,
2013-05-05 02:51:00,43.6,43.1,29.85,NNW,339,0.0,1.0,98,0.00,,,0.00,Wunderground v.1.15,2013-05-05 06:51:00,
2013-05-05 02:56:00,43.5,43.0,29.85,NNW,344,0.0,1.0,98,0.00,,,0.00,Wunderground v.1.15,2013-05-05 06:56:00,
2013-05-05 03:01:00,43.5,43.0,29.85,NW,324,1.0,1.0,98,0.00,,,0.00,Wunderground v.1.15,2013-05-05 07:01:00,
2013-05-05 03:06:00,43.5,43.0,29.84,NNW,330,0.0,1.0,98,0.00,,,0.00,Wunderground v.1.15,2013-05-05 07:06:00,
2013-05-05 03:11:00,43.5,43.0,29.84,NW,308,1.0,1.0,98,0.00,,,0.00,Wunderground v.1.15,2013-05-05 07:11:00,
2013-05-05 03:16:00,43.3,42.8,29.84,NW,310,0.0,1.0,98,0.00,,,0.00,Wunderground v.1.15,2013-05-05 07:16:00,
2013-05-05 03:21:00,43.5,43.0,29.84,NW,321,0.0,1.0,98,0.00,,,0.00,Wunderground v.1.15,2013-05-05 07:21:00,
2013-05-05 03:26:00,43.5,43.0,29.84,WNW,295,0.0,1.0,98,0.00,,,0.00,Wunderground v.1.15,2013-05-05 07:26:00,
2013-05-05 03:31:00,43.5,43.0,29.84,NNW,331,0.0,1.0,98,0.00,,,0.00,Wunderground v.1.15,2013-05-05 07:31:00,
2013-05-05 03:36:00,43.5,43.0,29.84,NW,319,1.0,1.0,98,0.00,,,0.00,Wunderground v.1.15,2013-05-05 07:36:00,
2013-05-05 03:41:00,43.5,43.0,29.84,NW,319,0.0,1.0,98,0.00,,,0.00,Wunderground v.1.15,2013-05-05 07:41:00,
2013-05-05 03:46:00,43.5,43.0,29.84,NW,319,0.0,1.0,98,0.00,,,0.00,Wunderground v.1.15,2013-05-05 07:46:00,
2013-05-05 03:51:00,43.6,43.1,29.85,NW,319,0.0,1.0,98,0.00,,,0.00,Wunderground v.1.15,2013-05-05 07:51:00,
2013-05-05 03:56:00,43.6,43.1,29.85,NW,319,1.0,1.0,98,0.00,,,0.00,Wunderground v.1.15,2013-05-05 07:56:00,
2013-05-05 04:01:00,43.6,43.1,29.85,NW,319,0.0,1.0,98,0.00,,,0.00,Wunderground v.1.15,2013-05-05 08:01:00,
2013-05-05 04:06:00,43.6,43.1,29.85,NW,319,1.0,1.0,98,0.00,,,0.00,Wunderground v.1.15,2013-05-05 08:06:00,
2013-05-05 04:11:00,43.6,43.1,29.85,NW,319,0.0,1.0,98,0.00,,,0.00,Wunderground v.1.15,2013-05-05 08:11:00,
2013-05-05 04:16:00,43.6,43.1,29.85,NNW,330,0.0,1.0,98,0.00,,,0.00,Wunderground v.1.15,2013-05-05 08:16:00,
2013-05-05 04:21:00,43.6,43.1,29.84,NNW,329,1.0,1.0,98,0.00,,,0.00,Wunderground v.1.15,2013-05-05 08:21:00,
2013-05-05 04:26:00,43.6,43.1,29.84,NW,321,1.0,1.0,98,0.00,,,0.00,Wunderground v.1.15,2013-05-05 08:26:00,
2013-05-05 04:31:00,43.6,43.1,29.84,NW,319,0.0,1.0,98,0.00,,,0.00,Wunderground v.1.15,2013-05-05 08:31:00,
2013-05-05 04:36:00,43.6,43.1,29.84,NW,312,0.0,1.0,98,0.00,,,0.00,Wunderground v.1.15,2013-05-05 08:36:00,
2013-05-05 04:41:00,43.6,43.1,29.84,NW,326,1.0,1.0,98,0.00,,,0.00,Wunderground v.1.15,2013-05-05 08:41:00,
2013-05-05 04:46:00,43.8,43.3,29.84,NW,326,0.0,1.0,98,0.00,,,0.00,Wunderground v.1.15,2013-05-05 08:46:00,
2013-05-05 04:51:00,43.8,43.3,29.84,NW,326,1.0,1.0,98,0.00,,,0.00,Wunderground v.1.15,2013-05-05 08:51:00,
2013-05-05 04:56:00,43.9,43.4,29.84,NNW,343,0.0,1.0,98,0.00,,,0.00,Wunderground v.1.15,2013-05-05 08:56:00,
2013-05-05 05:01:00,43.9,43.4,29.84,NNW,344,0.0,1.0,98,0.00,,,0.00,Wunderground v.1.15,2013-05-05 09:01:00,
2013-05-05 05:06:00,43.9,43.4,29.83,NNW,344,0.0,1.0,98,0.00,,,0.00,Wunderground v.1.15,2013-05-05 09:06:00,
2013-05-05 05:11:00,44.1,43.6,29.83,NNW,344,1.0,1.0,98,0.00,,,0.00,Wunderground v.1.15,2013-05-05 09:11:00,
2013-05-05 05:16:00,44.1,43.6,29.83,NNW,344,1.0,1.0,98,0.00,,,0.00,Wunderground v.1.15,2013-05-05 09:16:00,
2013-05-05 05:21:00,44.2,43.7,29.84,NNW,343,0.0,1.0,98,0.00,,,0.00,Wunderground v.1.15,2013-05-05 09:21:00,
2013-05-05 05:27:00,44.2,43.7,29.84,NNW,343,1.0,1.0,98,0.00,,,0.00,Wunderground v.1.15,2013-05-05 09:27:00,
2013-05-05 05:32:00,44.2,43.7,29.84,NNW,341,0.0,1.0,98,0.00,,,0.00,Wunderground v.1.15,2013-05-05 09:32:00,
2013-05-05 05:37:00,44.3,43.8,29.83,NNW,341,0.0,1.0,98,0.00,,,0.00,Wunderground v.1.15,2013-05-05 09:37:00,
2013-05-05 05:42:00,44.3,43.8,29.83,NNW,341,0.0,1.0,98,0.00,,,0.00,Wunderground v.1.15,2013-05-05 09:42:00,
2013-05-05 05:47:00,44.3,43.8,29.83,NNW,340,0.0,1.0,98,0.00,,,0.00,Wunderground v.1.15,2013-05-05 09:47:00,
2013-05-05 05:52:00,44.5,44.0,29.83,NNW,339,1.0,1.0,98,0.00,,,0.00,Wunderground v.1.15,2013-05-05 09:52:00,
2013-05-05 05:57:00,44.5,44.0,29.83,NNW,339,1.0,1.0,98,0.00,,,0.00,Wunderground v.1.15,2013-05-05 09:57:00,
2013-05-05 06:02:00,44.6,44.1,29.83,NNW,339,0.0,1.0,98,0.00,,,0.00,Wunderground v.1.15,2013-05-05 10:02:00,
2013-05-05 06:07:00,44.5,44.0,29.83,NNW,339,0.0,1.0,98,0.00,,,0.00,Wunderground v.1.15,2013-05-05 10:07:00,
2013-05-05 06:12:00,44.6,44.1,29.83,NNW,339,0.0,1.0,98,0.00,,,0.00,Wunderground v.1.15,2013-05-05 10:12:00,
2013-05-05 06:17:00,44.8,44.3,29.83,NNW,339,1.0,1.0,98,0.00,,,0.00,Wunderground v.1.15,2013-05-05 10:17:00,
2013-05-05 06:22:00,44.8,44.3,29.83,NNW,339,1.0,1.0,98,0.00,,,0.00,Wunderground v.1.15,2013-05-05 10:22:00,
2013-05-05 06:27:00,44.8,44.3,29.83,NNW,339,1.0,1.0,98,0.00,,,0.00,Wunderground v.1.15,2013-05-05 10:27:00,
2013-05-05 06:32:00,44.8,44.3,29.83,NNW,339,0.0,1.0,98,0.00,,,0.00,Wunderground v.1.15,2013-05-05 10:32:00,
2013-05-05 06:37:00,44.6,44.1,29.83,NNW,339,1.0,1.0,98,0.00,,,0.00,Wunderground v.1.15,2013-05-05 10:37:00,
2013-05-05 06:42:00,44.6,44.1,29.83,NNW,339,0.0,1.0,98,0.00,,,0.00,Wunderground v.1.15,2013-05-05 10:42:00,
2013-05-05 06:47:00,44.8,44.3,29.83,NNW,339,0.0,1.0,98,0.00,,,0.00,Wunderground v.1.15,2013-05-05 10:47:00,
2013-05-05 06:52:00,44.8,44.3,29.84,NNW,339,0.0,1.0,98,0.00,,,0.00,Wunderground v.1.15,2013-05-05 10:52:00,
2013-05-05 06:57:00,44.8,44.3,29.84,NNW,339,0.0,1.0,98,0.00,,,0.00,Wunderground v.1.15,2013-05-05 10:57:00,
2013-05-05 07:02:00,44.8,44.3,29.84,NNW,339,1.0,1.0,98,0.00,,,0.00,Wunderground v.1.15,2013-05-05 11:02:00,
2013-05-05 07:07:00,44.8,44.3,29.84,NNW,339,0.0,1.0,98,0.00,,,0.00,Wunderground v.1.15,2013-05-05 11:07:00,
2013-05-05 07:12:00,44.8,44.3,29.84,NNW,339,1.0,1.0,98,0.00,,,0.00,Wunderground v.1.15,2013-05-05 11:12:00,
2013-05-05 07:17:00,44.8,44.3,29.84,NNW,339,1.0,1.0,98,0.00,,,0.00,Wunderground v.1.15,2013-05-05 11:17:00,
2013-05-05 07:22:00,44.9,44.4,29.84,NNW,339,0.0,0.0,98,0.00,,,0.00,Wunderground v.1.15,2013-05-05 11:22:00,
2013-05-05 07:27:00,44.9,44.4,29.84,NNW,339,0.0,1.0,98,0.00,,,0.00,Wunderground v.1.15,2013-05-05 11:27:00,
2013-05-05 07:32:00,44.8,44.3,29.84,NNW,339,0.0,1.0,98,0.00,,,0.00,Wunderground v.1.15,2013-05-05 11:32:00,
2013-05-05 07:37:00,44.8,44.3,29.85,NNW,339,1.0,1.0,98,0.00,,,0.00,Wunderground v.1.15,2013-05-05 11:37:00,
2013-05-05 07:42:00,44.8,44.3,29.85,NNW,339,0.0,1.0,98,0.00,,,0.00,Wunderground v.1.15,2013-05-05 11:42:00,
2013-05-05 07:47:00,44.9,44.4,29.85,NNW,339,0.0,1.0,98,0.00,,,0.00,Wunderground v.1.15,2013-05-05 11:47:00,
2013-05-05 07:52:00,44.9,44.4,29.85,NNW,339,1.0,1.0,98,0.00,,,0.00,Wunderground v.1.15,2013-05-05 11:52:00,
2013-05-05 07:57:00,45.1,44.8,29.85,NNW,340,1.0,1.0,99,0.00,,,0.00,Wunderground v.1.15,2013-05-05 11:57:00,
2013-05-05 08:02:00,45.2,44.9,29.85,NNW,339,0.0,1.0,99,0.00,,,0.00,Wunderground v.1.15,2013-05-05 12:02:00,
2013-05-05 08:07:00,45.4,45.1,29.85,NNW,339,0.0,1.0,99,0.00,,,0.00,Wunderground v.1.15,2013-05-05 12:07:00,
2013-05-05 08:12:00,45.4,45.1,29.85,NNW,339,1.0,1.0,99,0.00,,,0.00,Wunderground v.1.15,2013-05-05 12:12:00,
2013-05-05 08:17:00,45.5,45.2,29.85,NNW,339,1.0,1.0,99,0.00,,,0.00,Wunderground v.1.15,2013-05-05 12:17:00,
2013-05-05 08:22:00,45.5,45.2,29.85,NNW,339,0.0,1.0,99,0.00,,,0.00,Wunderground v.1.15,2013-05-05 12:22:00,
2013-05-05 08:27:00,45.7,45.4,29.85,NNW,339,0.0,1.0,99,0.00,,,0.00,Wunderground v.1.15,2013-05-05 12:27:00,
2013-05-05 08:32:00,45.7,45.4,29.85,NNW,339,1.0,1.0,99,0.00,,,0.00,Wunderground v.1.15,2013-05-05 12:32:00,
2013-05-05 08:37:00,45.8,45.5,29.85,NNW,339,0.0,1.0,99,0.00,,,0.00,Wunderground v.1.15,2013-05-05 12:37:00,
2013-05-05 08:42:00,46.0,45.7,29.85,NNW,339,1.0,1.0,99,0.00,,,0.00,Wunderground v.1.15,2013-05-05 12:42:00,
2013-05-05 08:47:00,46.0,45.7,29.85,NNW,339,1.0,1.0,99,0.00,,,0.00,Wunderground v.1.15,2013-05-05 12:47:00,
2013-05-05 08:52:00,46.1,45.8,29.85,NNW,339,0.0,1.0,99,0.00,,,0.00,Wunderground v.1.15,2013-05-05 12:52:00,
2013-05-05 08:57:00,46.2,45.9,29.85,NNW,339,0.0,1.0,99,0.00,,,0.00,Wunderground v.1.15,2013-05-05 12:57:00,
2013-05-05 09:02:00,46.2,45.9,29.85,NNW,339,1.0,1.0,99,0.00,,,0.00,Wunderground v.1.15,2013-05-05 13:02:00,
2013-05-05 09:07:00,46.4,46.1,29.85,NNW,339,1.0,1.0,99,0.00,,,0.00,Wunderground v.1.15,2013-05-05 13:07:00,
2013-05-05 09:12:00,46.5,46.2,29.85,NNW,339,0.0,1.0,99,0.00,,,0.00,Wunderground v.1.15,2013-05-05 13:12:00,
2013-05-05 09:17:00,46.7,46.4,29.85,NNW,339,0.0,1.0,99,0.00,,,0.00,Wunderground v.1.15,2013-05-05 13:17:00,
2013-05-05 09:22:00,47.0,46.7,29.85,NNW,339,0.0,1.0,99,0.00,,,0.00,Wunderground v.1.15,2013-05-05 13:22:00,
2013-05-05 09:27:00,47.1,46.8,29.85,NNW,339,0.0,1.0,99,0.00,,,0.00,Wunderground v.1.15,2013-05-05 13:27:00,
2013-05-05 09:32:00,47.3,47.0,29.85,NNW,339,0.0,0.0,99,0.00,,,0.00,Wunderground v.1.15,2013-05-05 13:32:00,
2013-05-05 09:37:00,47.4,47.1,29.85,NNW,339,0.0,0.0,99,0.00,,,0.00,Wunderground v.1.15,2013-05-05 13:37:00,
2013-05-05 09:42:00,47.4,47.1,29.85,NNW,339,0.0,1.0,99,0.00,,,0.00,Wunderground v.1.15,2013-05-05 13:42:00,
2013-05-05 09:47:00,47.6,47.3,29.85,NNW,339,0.0,1.0,99,0.00,,,0.00,Wunderground v.1.15,2013-05-05 13:47:00,
2013-05-05 09:52:00,47.7,47.4,29.85,NNW,339,0.0,0.0,99,0.00,,,0.00,Wunderground v.1.15,2013-05-05 13:52:00,
2013-05-05 09:58:00,47.9,47.6,29.85,NNW,339,0.0,0.0,99,0.00,,,0.00,Wunderground v.1.15,2013-05-05 13:58:00,
2013-05-05 10:03:00,47.9,47.6,29.85,NNW,338,0.0,1.0,99,0.00,,,0.00,Wunderground v.1.15,2013-05-05 14:03:00,
2013-05-05 10:08:00,47.9,47.6,29.85,NNW,338,0.0,1.0,99,0.00,,,0.00,Wunderground v.1.15,2013-05-05 14:08:00,
2013-05-05 10:13:00,48.0,47.7,29.85,NNW,338,0.0,0.0,99,0.00,,,0.00,Wunderground v.1.15,2013-05-05 14:13:00,
2013-05-05 10:18:00,48.2,47.9,29.85,NNW,338,0.0,0.0,99,0.00,,,0.00,Wunderground v.1.15,2013-05-05 14:18:00,
2013-05-05 10:23:00,48.3,48.0,29.85,NNW,338,0.0,1.0,99,0.00,,,0.00,Wunderground v.1.15,2013-05-05 14:23:00,
2013-05-05 10:28:00,48.3,48.0,29.85,NNW,338,0.0,1.0,99,0.00,,,0.00,Wunderground v.1.15,2013-05-05 14:28:00,
2013-05-05 10:33:00,48.0,47.7,29.85,NNW,338,0.0,1.0,99,0.00,,,0.00,Wunderground v.1.15,2013-05-05 14:33:00,
2013-05-05 10:38:00,48.0,47.7,29.85,NNW,338,0.0,1.0,99,0.00,,,0.00,Wunderground v.1.15,2013-05-05 14:38:00,
2013-05-05 10:43:00,47.9,47.6,29.85,NNW,338,0.0,0.0,99,0.00,,,0.00,Wunderground v.1.15,2013-05-05 14:43:00,
2013-05-05 10:48:00,48.2,47.9,29.85,NNW,338,0.0,0.0,99,0.00,,,0.00,Wunderground v.1.15,2013-05-05 14:48:00,
2013-05-05 10:53:00,48.5,48.2,29.85,NNW,338,0.0,0.0,99,0.00,,,0.00,Wunderground v.1.15,2013-05-05 14:53:00,
2013-05-05 10:58:00,48.8,48.5,29.85,NNW,338,0.0,0.0,99,0.00,,,0.00,Wunderground v.1.15,2013-05-05 14:58:00,
2013-05-05 11:03:00,48.8,48.5,29.85,NNW,338,0.0,0.0,99,0.00,,,0.00,Wunderground v.1.15,2013-05-05 15:03:00,
2013-05-05 11:08:00,48.6,48.3,29.85,NNW,338,0.0,1.0,99,0.00,,,0.00,Wunderground v.1.15,2013-05-05 15:08:00,
2013-05-05 11:13:00,48.8,48.5,29.85,NNW,338,0.0,0.0,99,0.00,,,0.00,Wunderground v.1.15,2013-05-05 15:13:00,
2013-05-05 11:18:00,49.1,48.8,29.85,NNW,338,0.0,0.0,99,0.00,,,0.00,Wunderground v.1.15,2013-05-05 15:18:00,
2013-05-05 11:23:00,49.2,48.9,29.85,NNW,338,0.0,1.0,99,0.00,,,0.00,Wunderground v.1.15,2013-05-05 15:23:00,
2013-05-05 11:28:00,49.2,48.9,29.85,NNW,338,0.0,1.0,99,0.00,,,0.00,Wunderground v.1.15,2013-05-05 15:28:00,
2013-05-05 11:33:00,49.2,48.9,29.85,NNW,338,0.0,0.0,99,0.00,,,0.00,Wunderground v.1.15,2013-05-05 15:33:00,
2013-05-05 11:38:00,49.4,49.1,29.85,NNW,335,1.0,1.0,99,0.00,,,0.00,Wunderground v.1.15,2013-05-05 15:38:00,
2013-05-05 11:43:00,49.4,49.1,29.85,NNW,335,0.0,1.0,99,0.00,,,0.00,Wunderground v.1.15,2013-05-05 15:43:00,
2013-05-05 11:48:00,49.5,49.2,29.86,NNW,335,0.0,1.0,99,0.00,,,0.00,Wunderground v.1.15,2013-05-05 15:48:00,
2013-05-05 11:53:00,49.5,49.2,29.86,NE,50,0.0,1.0,99,0.00,,,0.00,Wunderground v.1.15,2013-05-05 15:53:00,
2013-05-05 11:58:00,49.5,49.2,29.86,NE,50,0.0,1.0,99,0.00,,,0.00,Wunderground v.1.15,2013-05-05 15:58:00,
2013-05-05 12:03:00,49.5,49.2,29.85,NE,50,0.0,0.0,99,0.00,,,0.00,Wunderground v.1.15,2013-05-05 16:03:00,
2013-05-05 12:08:00,49.6,49.3,29.85,NE,50,0.0,0.0,99,0.00,,,0.00,Wunderground v.1.15,2013-05-05 16:08:00,
2013-05-05 12:13:00,49.9,49.6,29.85,NE,51,0.0,0.0,99,0.00,,,0.00,Wunderground v.1.15,2013-05-05 16:13:00,
2013-05-05 12:18:00,50.2,49.9,29.85,NE,53,0.0,1.0,99,0.00,,,0.00,Wunderground v.1.15,2013-05-05 16:18:00,
2013-05-05 12:23:00,50.1,49.8,29.85,NE,53,0.0,0.0,99,0.00,,,0.00,Wunderground v.1.15,2013-05-05 16:23:00,
2013-05-05 12:28:00,50.2,49.9,29.85,SSE,167,0.0,0.0,99,0.00,,,0.00,Wunderground v.1.15,2013-05-05 16:28:00,
2013-05-05 12:33:00,50.8,50.5,29.85,SSE,167,0.0,1.0,99,0.00,,,0.00,Wunderground v.1.15,2013-05-05 16:33:00,
2013-05-05 12:39:00,50.5,50.2,29.85,SSE,168,0.0,1.0,99,0.00,,,0.00,Wunderground v.1.15,2013-05-05 16:39:00,
2013-05-05 12:44:00,50.5,50.2,29.85,SSE,167,0.0,1.0,99,0.00,,,0.00,Wunderground v.1.15,2013-05-05 16:44:00,
2013-05-05 12:49:00,50.5,50.2,29.85,SSE,167,0.0,1.0,99,0.00,,,0.00,Wunderground v.1.15,2013-05-05 16:49:00,
2013-05-05 12:54:00,50.8,50.5,29.85,SSE,167,0.0,0.0,99,0.00,,,0.00,Wunderground v.1.15,2013-05-05 16:54:00,
2013-05-05 12:59:00,50.8,50.5,29.85,SSE,167,0.0,1.0,99,0.00,,,0.00,Wunderground v.1.15,2013-05-05 16:59:00,
2013-05-05 13:04:00,51.0,50.7,29.85,SSE,161,0.0,0.0,99,0.00,,,0.00,Wunderground v.1.15,2013-05-05 17:04:00,
2013-05-05 13:09:00,50.8,50.5,29.85,SSE,161,0.0,1.0,99,0.00,,,0.00,Wunderground v.1.15,2013-05-05 17:09:00,
2013-05-05 13:14:00,50.7,50.4,29.85,SSE,162,0.0,1.0,99,0.00,,,0.00,Wunderground v.1.15,2013-05-05 17:14:00,
2013-05-05 13:19:00,50.7,50.4,29.85,SSE,161,0.0,1.0,99,0.00,,,0.00,Wunderground v.1.15,2013-05-05 17:19:00,
2013-05-05 13:24:00,50.8,50.5,29.85,SSE,148,0.0,0.0,99,0.00,,,0.00,Wunderground v.1.15,2013-05-05 17:24:00,
2013-05-05 13:29:00,50.7,50.4,29.85,SSE,148,0.0,1.0,99,0.00,,,0.00,Wunderground v.1.15,2013-05-05 17:29:00,
2013-05-05 13:34:00,50.7,50.4,29.85,SSE,149,0.0,0.0,99,0.00,,,0.00,Wunderground v.1.15,2013-05-05 17:34:00,
2013-05-05 13:39:00,51.0,50.7,29.85,SSE,149,0.0,0.0,99,0.00,,,0.00,Wunderground v.1.15,2013-05-05 17:39:00,
2013-05-05 13:44:00,51.1,50.8,29.85,SSE,148,0.0,1.0,99,0.00,,,0.00,Wunderground v.1.15,2013-05-05 17:44:00,
2013-05-05 13:49:00,51.1,50.8,29.84,SSE,148,0.0,1.0,99,0.00,,,0.00,Wunderground v.1.15,2013-05-05 17:49:00,
2013-05-05 13:54:00,51.6,51.3,29.84,SSE,148,0.0,1.0,99,0.00,,,0.00,Wunderground v.1.15,2013-05-05 17:54:00,
2013-05-05 13:59:00,51.9,51.6,29.84,SSE,148,0.0,1.0,99,0.00,,,0.00,Wunderground v.1.15,2013-05-05 17:59:00,
2013-05-05 14:04:00,51.9,51.6,29.83,SSE,148,0.0,0.0,99,0.00,,,0.00,Wunderground v.1.15,2013-05-05 18:04:00,
2013-05-05 14:09:00,52.0,51.7,29.83,SE,135,0.0,0.0,99,0.00,,,0.00,Wunderground v.1.15,2013-05-05 18:09:00,
2013-05-05 14:14:00,51.9,51.6,29.83,SE,141,0.0,0.0,99,0.00,,,0.00,Wunderground v.1.15,2013-05-05 18:14:00,
2013-05-05 14:19:00,52.3,52.0,29.83,SE,134,0.0,0.0,99,0.00,,,0.00,Wunderground v.1.15,2013-05-05 18:19:00,
2013-05-05 14:24:00,52.9,52.6,29.83,SE,134,0.0,0.0,99,0.00,,,0.00,Wunderground v.1.15,2013-05-05 18:24:00,
2013-05-05 14:29:00,53.3,53.0,29.83,SE,133,0.0,0.0,99,0.00,,,0.00,Wunderground v.1.15,2013-05-05 18:29:00,
2013-05-05 14:34:00,53.8,53.5,29.83,SE,141,0.0,0.0,99,0.00,,,0.00,Wunderground v.1.15,2013-05-05 18:34:00,
2013-05-05 14:39:00,53.6,53.3,29.83,SSE,150,0.0,0.0,99,0.00,,,0.00,Wunderground v.1.15,2013-05-05 18:39:00,
2013-05-05 14:44:00,53.6,53.0,29.83,SE,125,0.0,0.0,98,0.00,,,0.00,Wunderground v.1.15,2013-05-05 18:44:00,
2013-05-05 14:49:00,53.5,52.7,29.83,ESE,122,0.0,0.0,97,0.00,,,0.00,Wunderground v.1.15,2013-05-05 18:49:00,
2013-05-05 14:54:00,53.6,52.8,29.83,ESE,117,0.0,0.0,97,0.00,,,0.00,Wunderground v.1.15,2013-05-05 18:54:00,
2013-05-05 14:59:00,54.1,53.0,29.83,SE,124,0.0,0.0,96,0.00,,,0.00,Wunderground v.1.15,2013-05-05 18:59:00,
2013-05-05 15:04:00,53.6,51.9,29.83,ESE,110,0.0,0.0,94,0.00,,,0.00,Wunderground v.1.15,2013-05-05 19:04:00,
2013-05-05 15:09:00,53.9,52.2,29.83,ESE,120,0.0,0.0,94,0.00,,,0.00,Wunderground v.1.15,2013-05-05 19:09:00,
2013-05-05 15:14:00,54.2,51.9,29.83,SSE,154,0.0,0.0,92,0.00,,,0.00,Wunderground v.1.15,2013-05-05 19:14:00,
2013-05-05 15:19:00,54.5,52.2,29.82,ESE,117,0.0,0.0,92,0.00,,,0.00,Wunderground v.1.15,2013-05-05 19:19:00,
2013-05-05 15:24:00,54.8,51.9,29.82,SE,141,0.0,0.0,90,0.00,,,0.00,Wunderground v.1.15,2013-05-05 19:24:00,
2013-05-05 15:29:00,54.4,50.3,29.82,ESE,115,0.0,0.0,86,0.00,,,0.00,Wunderground v.1.15,2013-05-05 19:29:00,
2013-05-05 15:35:00,54.5,51.0,29.82,SE,131,0.0,0.0,88,0.00,,,0.00,Wunderground v.1.15,2013-05-05 19:35:00,
2013-05-05 15:40:00,55.1,51.6,29.82,SE,131,0.0,0.0,88,0.00,,,0.00,Wunderground v.1.15,2013-05-05 19:40:00,
2013-05-05 15:45:00,55.6,51.2,29.82,SE,131,0.0,0.0,85,0.00,,,0.00,Wunderground v.1.15,2013-05-05 19:45:00,
2013-05-05 15:50:00,55.3,50.2,29.81,SSE,150,0.0,0.0,83,0.00,,,0.00,Wunderground v.1.15,2013-05-05 19:50:00,
2013-05-05 15:55:00,55.6,50.8,29.81,SE,132,0.0,0.0,84,0.00,,,0.00,Wunderground v.1.15,2013-05-05 19:55:00,
2013-05-05 16:00:00,56.0,50.9,29.81,ESE,119,0.0,0.0,83,0.00,,,0.00,Wunderground v.1.15,2013-05-05 20:00:00,
2013-05-05 16:05:00,56.2,50.8,29.80,ESE,115,0.0,0.0,82,0.00,,,0.00,Wunderground v.1.15,2013-05-05 20:05:00,
2013-05-05 16:10:00,56.5,50.7,29.80,ESE,122,0.0,0.0,81,0.00,,,0.00,Wunderground v.1.15,2013-05-05 20:10:00,
2013-05-05 16:15:00,56.5,49.7,29.80,SE,131,0.0,0.0,78,0.00,,,0.00,Wunderground v.1.15,2013-05-05 20:15:00,
2013-05-05 16:20:00,56.6,49.8,29.79,SE,143,0.0,0.0,78,0.00,,,0.00,Wunderground v.1.15,2013-05-05 20:20:00,
2013-05-05 16:25:00,56.3,49.2,29.79,ESE,112,0.0,1.0,77,0.00,,,0.00,Wunderground v.1.15,2013-05-05 20:25:00,
2013-05-05 16:30:00,56.3,49.2,29.79,ESE,120,0.0,0.0,77,0.00,,,0.00,Wunderground v.1.15,2013-05-05 20:30:00,
2013-05-05 16:35:00,56.5,49.0,29.79,SE,138,0.0,0.0,76,0.00,,,0.00,Wunderground v.1.15,2013-05-05 20:35:00,
2013-05-05 16:40:00,56.7,48.9,29.79,SE,130,0.0,0.0,75,0.00,,,0.00,Wunderground v.1.15,2013-05-05 20:40:00,
2013-05-05 16:45:00,57.0,49.5,29.79,SE,124,0.0,1.0,76,0.00,,,0.00,Wunderground v.1.15,2013-05-05 20:45:00,
2013-05-05 16:50:00,57.0,49.2,29.78,SE,124,0.0,0.0,75,0.00,,,0.00,Wunderground v.1.15,2013-05-05 20:50:00,
2013-05-05 16:55:00,57.2,49.0,29.78,SE,125,0.0,0.0,74,0.00,,,0.00,Wunderground v.1.15,2013-05-05 20:55:00,
2013-05-05 17:00:00,57.0,48.8,29.78,SSE,156,0.0,0.0,74,0.00,,,0.00,Wunderground v.1.15,2013-05-05 21:00:00,
2013-05-05 17:05:00,57.5,49.6,29.77,East,82,0.0,0.0,75,0.00,,,0.00,Wunderground v.1.15,2013-05-05 21:05:00,
2013-05-05 17:10:00,57.6,50.4,29.77,East,82,0.0,0.0,77,0.00,,,0.00,Wunderground v.1.15,2013-05-05 21:10:00,
2013-05-05 17:15:00,56.9,49.4,29.77,SSE,160,0.0,0.0,76,0.00,,,0.00,Wunderground v.1.15,2013-05-05 21:15:00,
2013-05-05 17:20:00,56.5,49.4,29.78,SE,126,0.0,0.0,77,0.00,,,0.00,Wunderground v.1.15,2013-05-05 21:20:00,
2013-05-05 17:25:00,56.2,48.7,29.78,SE,139,0.0,0.0,76,0.00,,,0.00,Wunderground v.1.15,2013-05-05 21:25:00,
2013-05-05 17:30:00,56.0,47.5,29.78,SE,132,0.0,0.0,73,0.00,,,0.00,Wunderground v.1.15,2013-05-05 21:30:00,
2013-05-05 17:35:00,56.2,48.0,29.78,SE,143,0.0,0.0,74,0.00,,,0.00,Wunderground v.1.15,2013-05-05 21:35:00,
2013-05-05 17:40:00,56.0,47.8,29.78,SE,134,0.0,0.0,74,0.00,,,0.00,Wunderground v.1.15,2013-05-05 21:40:00,
2013-05-05 17:45:00,56.0,48.9,29.78,SE,146,0.0,0.0,77,0.00,,,0.00,Wunderground v.1.15,2013-05-05 21:45:00,
2013-05-05 17:51:00,55.9,48.4,29.78,SE,146,0.0,0.0,76,0.00,,,0.00,Wunderground v.1.15,2013-05-05 21:51:00,
2013-05-05 17:56:00,55.6,48.2,29.78,SE,127,0.0,0.0,76,0.00,,,0.00,Wunderground v.1.15,2013-05-05 21:56:00,
2013-05-05 18:01:00,55.4,47.6,29.78,ESE,118,0.0,0.0,75,0.00,,,0.00,Wunderground v.1.15,2013-05-05 22:01:00,
2013-05-05 18:06:00,55.4,47.2,29.78,ESE,120,0.0,0.0,74,0.00,,,0.00,Wunderground v.1.15,2013-05-05 22:06:00,
2013-05-05 18:11:00,55.7,46.8,29.78,ESE,120,0.0,0.0,72,0.00,,,0.00,Wunderground v.1.15,2013-05-05 22:11:00,
2013-05-05 18:16:00,55.7,46.4,29.78,ESE,120,0.0,0.0,71,0.00,,,0.00,Wunderground v.1.15,2013-05-05 22:16:00,
2013-05-05 18:21:00,55.6,47.4,29.78,ESE,120,0.0,0.0,74,0.00,,,0.00,Wunderground v.1.15,2013-05-05 22:21:00,
2013-05-05 18:26:00,55.4,47.6,29.78,ESE,119,0.0,0.0,75,0.00,,,0.00,Wunderground v.1.15,2013-05-05 22:26:00,
2013-05-05 18:31:00,55.3,48.2,29.78,ESE,120,0.0,0.0,77,0.00,,,0.00,Wunderground v.1.15,2013-05-05 22:31:00,
2013-05-05 18:36:00,55.1,47.7,29.78,ESE,120,0.0,0.0,76,0.00,,,0.00,Wunderground v.1.15,2013-05-05 22:36:00,
2013-05-05 18:41:00,55.1,48.0,29.78,SE,141,0.0,0.0,77,0.00,,,0.00,Wunderground v.1.15,2013-05-05 22:41:00,
2013-05-05 18:46:00,55.0,48.3,29.78,SE,138,0.0,0.0,78,0.00,,,0.00,Wunderground v.1.15,2013-05-05 22:46:00,
2013-05-05 18:51:00,54.8,49.1,29.78,SE,138,0.0,1.0,81,0.00,,,0.00,Wunderground v.1.15,2013-05-05 22:51:00,
2013-05-05 18:56:00,54.7,49.6,29.78,SE,139,0.0,1.0,83,0.00,,,0.00,Wunderground v.1.15,2013-05-05 22:56:00,
2013-05-05 19:01:00,54.4,49.7,29.78,SE,139,0.0,0.0,84,0.00,,,0.00,Wunderground v.1.15,2013-05-05 23:01:00,
2013-05-05 19:06:00,54.4,50.3,29.79,SE,139,0.0,1.0,86,0.00,,,0.00,Wunderground v.1.15,2013-05-05 23:06:00,
2013-05-05 19:11:00,53.1,48.7,29.79,SE,136,0.0,0.0,85,0.00,,,0.00,Wunderground v.1.15,2013-05-05 23:11:00,
2013-05-05 19:16:00,52.5,49.0,29.79,SE,136,0.0,1.0,88,0.00,,,0.00,Wunderground v.1.15,2013-05-05 23:16:00,
2013-05-05 19:21:00,51.7,48.3,29.80,North,8,0.0,1.0,88,0.00,,,0.00,Wunderground v.1.15,2013-05-05 23:21:00,
2013-05-05 19:26:00,50.8,46.8,29.80,WSW,248,0.0,1.0,86,0.00,,,0.00,Wunderground v.1.15,2013-05-05 23:26:00,
2013-05-05 19:31:00,50.1,46.4,29.80,WSW,248,0.0,0.0,87,0.00,,,0.00,Wunderground v.1.15,2013-05-05 23:31:00,
2013-05-05 19:36:00,49.5,46.7,29.83,SSE,160,0.0,1.0,90,0.00,,,0.00,Wunderground v.1.15,2013-05-05 23:36:00,
2013-05-05 19:41:00,49.1,46.6,29.83,SSE,161,0.0,0.0,91,0.00,,,0.00,Wunderground v.1.15,2013-05-05 23:41:00,
2013-05-05 19:46:00,48.9,46.7,29.83,NW,314,0.0,1.0,92,0.00,,,0.00,Wunderground v.1.15,2013-05-05 23:46:00,
2013-05-05 19:51:00,48.6,46.7,29.84,NW,313,1.0,1.0,93,0.00,,,0.00,Wunderground v.1.15,2013-05-05 23:51:00,
2013-05-05 19:56:00,48.5,46.6,29.84,NW,318,1.0,1.0,93,0.00,,,0.00,Wunderground v.1.15,2013-05-05 23:56:00,
2013-05-05 20:01:00,48.2,46.6,29.84,NW,304,0.0,1.0,94,0.00,,,0.00,Wunderground v.1.15,2013-05-06 00:01:00,
2013-05-05 20:06:00,48.0,46.4,29.82,NW,313,0.0,1.0,94,0.00,,,0.00,Wunderground v.1.15,2013-05-06 00:06:00,
2013-05-05 20:11:00,48.0,46.6,29.82,NW,314,1.0,1.0,95,0.00,,,0.00,Wunderground v.1.15,2013-05-06 00:11:00,
2013-05-05 20:16:00,47.9,46.5,29.82,NW,314,0.0,1.0,95,0.00,,,0.00,Wunderground v.1.15,2013-05-06 00:16:00,
2013-05-05 20:21:00,47.7,46.3,29.82,NW,314,1.0,1.0,95,0.00,,,0.00,Wunderground v.1.15,2013-05-06 00:21:00,
2013-05-05 20:26:00,47.7,46.6,29.82,NW,316,0.0,1.0,96,0.00,,,0.00,Wunderground v.1.15,2013-05-06 00:26:00,
2013-05-05 20:31:00,47.7,46.6,29.82,NW,316,1.0,1.0,96,0.00,,,0.00,Wunderground v.1.15,2013-05-06 00:31:00,
2013-05-05 20:36:00,47.6,46.5,29.82,NW,316,0.0,1.0,96,0.00,,,0.00,Wunderground v.1.15,2013-05-06 00:36:00,
2013-05-05 20:41:00,47.6,46.5,29.82,NW,316,1.0,1.0,96,0.00,,,0.00,Wunderground v.1.15,2013-05-06 00:41:00,
2013-05-05 20:46:00,47.6,46.5,29.82,NW,316,1.0,1.0,96,0.00,,,0.00,Wunderground v.1.15,2013-05-06 00:46:00,
2013-05-05 20:51:00,47.6,46.5,29.83,NW,316,1.0,1.0,96,0.00,,,0.00,Wunderground v.1.15,2013-05-06 00:51:00,
2013-05-05 20:56:00,47.6,46.5,29.83,NW,316,0.0,1.0,96,0.00,,,0.00,Wunderground v.1.15,2013-05-06 00:56:00,
2013-05-05 21:01:00,47.6,46.5,29.83,NW,315,0.0,1.0,96,0.00,,,0.00,Wunderground v.1.15,2013-05-06 01:01:00,
2013-05-05 21:07:00,47.6,46.5,29.82,NW,315,0.0,1.0,96,0.00,,,0.00,Wunderground v.1.15,2013-05-06 01:07:00,
2013-05-05 21:12:00,47.6,46.5,29.82,NW,315,0.0,0.0,96,0.00,,,0.00,Wunderground v.1.15,2013-05-06 01:12:00,
2013-05-05 21:17:00,47.7,46.6,29.82,NW,315,0.0,1.0,96,0.00,,,0.00,Wunderground v.1.15,2013-05-06 01:17:00,
2013-05-05 21:22:00,47.9,46.8,29.84,NW,315,1.0,1.0,96,0.00,,,0.00,Wunderground v.1.15,2013-05-06 01:22:00,
2013-05-05 21:27:00,47.7,46.6,29.84,NW,314,0.0,1.0,96,0.00,,,0.00,Wunderground v.1.15,2013-05-06 01:27:00,
2013-05-05 21:32:00,47.6,46.8,29.84,NW,315,1.0,1.0,97,0.00,,,0.00,Wunderground v.1.15,2013-05-06 01:32:00,
2013-05-05 21:37:00,47.6,46.8,29.82,NW,315,1.0,1.0,97,0.00,,,0.00,Wunderground v.1.15,2013-05-06 01:37:00,
2013-05-05 21:42:00,47.6,46.8,29.82,NW,315,0.0,1.0,97,0.00,,,0.00,Wunderground v.1.15,2013-05-06 01:42:00,
2013-05-05 21:47:00,47.6,46.8,29.82,NW,315,0.0,1.0,97,0.00,,,0.00,Wunderground v.1.15,2013-05-06 01:47:00,
2013-05-05 21:52:00,47.6,46.8,29.82,NW,315,0.0,1.0,97,0.00,,,0.00,Wunderground v.1.15,2013-05-06 01:52:00,
2013-05-05 21:57:00,47.6,46.8,29.82,NW,315,0.0,1.0,97,0.00,,,0.00,Wunderground v.1.15,2013-05-06 01:57:00,
2013-05-05 22:02:00,47.4,46.6,29.82,NW,315,0.0,0.0,97,0.00,,,0.00,Wunderground v.1.15,2013-05-06 02:02:00,
2013-05-05 22:07:00,47.6,46.8,29.84,NW,315,0.0,0.0,97,0.00,,,0.00,Wunderground v.1.15,2013-05-06 02:07:00,
2013-05-05 22:12:00,47.6,46.8,29.84,NW,315,1.0,1.0,97,0.00,,,0.00,Wunderground v.1.15,2013-05-06 02:12:00,
2013-05-05 22:17:00,47.4,46.6,29.84,NW,315,0.0,1.0,97,0.00,,,0.00,Wunderground v.1.15,2013-05-06 02:17:00,
2013-05-05 22:22:00,47.4,46.6,29.83,NW,314,0.0,0.0,97,0.00,,,0.00,Wunderground v.1.15,2013-05-06 02:22:00,
2013-05-05 22:28:00,47.4,46.6,29.83,NW,314,0.0,0.0,97,0.00,,,0.00,Wunderground v.1.15,2013-05-06 02:28:00,
2013-05-05 22:33:00,47.4,46.6,29.83,NW,314,0.0,0.0,97,0.00,,,0.00,Wunderground v.1.15,2013-05-06 02:33:00,
2013-05-05 22:38:00,47.6,46.8,29.83,NW,314,0.0,0.0,97,0.00,,,0.00,Wunderground v.1.15,2013-05-06 02:38:00,
2013-05-05 22:43:00,47.6,46.8,29.83,NW,314,0.0,0.0,97,0.00,,,0.00,Wunderground v.1.15,2013-05-06 02:43:00,
2013-05-05 22:48:00,47.6,46.8,29.83,NW,314,0.0,0.0,97,0.00,,,0.00,Wunderground v.1.15,2013-05-06 02:48:00,
2013-05-05 22:53:00,47.6,46.8,29.83,NW,314,0.0,0.0,97,0.00,,,0.00,Wunderground v.1.15,2013-05-06 02:53:00,
2013-05-05 22:58:00,47.6,46.8,29.83,NW,314,0.0,0.0,97,0.00,,,0.00,Wunderground v.1.15,2013-05-06 02:58:00,
2013-05-05 23:03:00,47.6,46.8,29.83,NW,314,0.0,1.0,97,0.00,,,0.00,Wunderground v.1.15,2013-05-06 03:03:00,
2013-05-05 23:08:00,47.6,46.8,29.83,NW,314,1.0,1.0,97,0.00,,,0.00,Wunderground v.1.15,2013-05-06 03:08:00,
2013-05-05 23:13:00,47.6,46.8,29.83,NW,314,0.0,1.0,97,0.00,,,0.00,Wunderground v.1.15,2013-05-06 03:13:00,
2013-05-05 23:18:00,47.4,46.6,29.83,NW,314,0.0,1.0,97,0.00,,,0.00,Wunderground v.1.15,2013-05-06 03:18:00,
2013-05-05 23:23:00,47.4,46.6,29.83,NW,314,0.0,0.0,97,0.00,,,0.00,Wunderground v.1.15,2013-05-06 03:23:00,
2013-05-05 23:28:00,47.6,46.8,29.83,NW,314,0.0,0.0,97,0.00,,,0.00,Wunderground v.1.15,2013-05-06 03:28:00,
2013-05-05 23:33:00,47.4,46.6,29.85,NW,314,0.0,1.0,97,0.00,,,0.00,Wunderground v.1.15,2013-05-06 03:33:00,
2013-05-05 23:38:00,47.4,46.6,29.85,NW,314,0.0,1.0,97,0.00,,,0.00,Wunderground v.1.15,2013-05-06 03:38:00,
2013-05-05 23:43:00,47.4,46.6,29.85,NW,314,0.0,0.0,97,0.00,,,0.00,Wunderground v.1.15,2013-05-06 03:43:00,
2013-05-05 23:48:00,47.4,46.6,29.83,NW,314,0.0,1.0,97,0.00,,,0.00,Wunderground v.1.15,2013-05-06 03:48:00,
2013-05-05 23:53:00,47.3,46.5,29.83,NW,314,0.0,1.0,97,0.00,,,0.00,Wunderground v.1.15,2013-05-06 03:53:00,
2013-05-05 23:58:00,47.3,46.5,29.83,NW,314,0.0,1.0,97,0.00,,,0.00,Wunderground v.1.15,2013-05-06 03:58:00,